CEB737 RPVI-RPLL

Flight info

Callsign CEB737
Flight time 0h 53m
Altitude 34000
Route LAMBO1S LAMBO B472 IBAGO IBAGO7R
Aircraft A20N/M-SDE2E3FGHIRWXY/LB1

Departure

Time 2026-04-25 08:37
Airport Iloilo International Airport (RPVI)

Arrival

Time 2026-04-25 09:31
Airport Ninoy Aquino International Airport (RPLL)
Time Latitude Longitude Altitude Speed Heading
2026-04-25 08:12 10.83112 122.49653 141 ft 0 kts 110°
2026-04-25 08:25 10.83115 122.49644 141 ft 2 kts 115°
2026-04-25 08:26 10.83125 122.49633 141 ft 2 kts 144°
2026-04-25 08:26 10.83139 122.49626 141 ft 2 kts 168°
2026-04-25 08:26 10.83154 122.49623 141 ft 2 kts 147°
2026-04-25 08:26 10.83163 122.49611 141 ft 2 kts 106°
2026-04-25 08:27 10.83163 122.49596 141 ft 2 kts 66°
2026-04-25 08:27 10.83156 122.49584 140 ft 0 kts 63°
2026-04-25 08:27 10.83151 122.49573 140 ft 2 kts 43°
2026-04-25 08:27 10.83142 122.49567 140 ft 0 kts 23°
2026-04-25 08:28 10.83135 122.49565 140 ft 0 kts 19°
2026-04-25 08:31 10.83138 122.49567 140 ft 1 kts 19°
2026-04-25 08:31 10.83152 122.49571 140 ft 3 kts 20°
2026-04-25 08:31 10.83182 122.49583 140 ft 6 kts 20°
2026-04-25 08:32 10.83233 122.49602 141 ft 6 kts 20°
2026-04-25 08:32 10.83289 122.49623 141 ft 9 kts 20°
2026-04-25 08:32 10.83352 122.49646 142 ft 10 kts 20°
2026-04-25 08:32 10.83422 122.49672 142 ft 11 kts 20°
2026-04-25 08:33 10.83491 122.49656 142 ft 11 kts 303°
2026-04-25 08:33 10.83522 122.49577 142 ft 12 kts 291°
2026-04-25 08:33 10.83552 122.49493 142 ft 13 kts 292°
2026-04-25 08:33 10.83626 122.49455 143 ft 13 kts 18°
2026-04-25 08:34 10.83712 122.49487 144 ft 13 kts 20°
2026-04-25 08:34 10.83796 122.49520 144 ft 12 kts 19°
2026-04-25 08:34 10.83882 122.49551 145 ft 12 kts 20°
2026-04-25 08:34 10.83967 122.49583 146 ft 12 kts 20°
2026-04-25 08:35 10.84053 122.49613 147 ft 12 kts 20°
2026-04-25 08:35 10.84137 122.49645 148 ft 12 kts 19°
2026-04-25 08:35 10.84217 122.49674 150 ft 11 kts 19°
2026-04-25 08:35 10.84285 122.49715 152 ft 10 kts 52°
2026-04-25 08:36 10.84345 122.49737 152 ft 7 kts 307°
2026-04-25 08:36 10.84317 122.49711 151 ft 0 kts 200°
2026-04-25 08:36 10.84237 122.49682 151 ft 50 kts 200°
2026-04-25 08:37 10.83594 122.49445 143 ft 141 kts 200°
2026-04-25 08:37 10.82495 122.49028 520 ft 179 kts 201°
2026-04-25 08:37 10.81366 122.48588 1515 ft 177 kts 198°
2026-04-25 08:37 10.80336 122.47926 2325 ft 187 kts 232°
2026-04-25 08:38 10.80015 122.46641 2874 ft 202 kts 279°
2026-04-25 08:38 10.80672 122.45364 3378 ft 212 kts 323°
2026-04-25 08:38 10.82022 122.44744 3900 ft 224 kts 349°
2026-04-25 08:38 10.83594 122.44340 4517 ft 240 kts 350°
2026-04-25 08:39 10.85224 122.43926 5375 ft 246 kts 349°
2026-04-25 08:39 10.86874 122.43493 6287 ft 248 kts 349°
2026-04-25 08:39 10.88539 122.43044 7188 ft 251 kts 348°
2026-04-25 08:39 10.90225 122.42577 8051 ft 254 kts 347°
2026-04-25 08:40 10.91923 122.42098 8881 ft 257 kts 347°
2026-04-25 08:40 10.93653 122.41607 9704 ft 259 kts 346°
2026-04-25 08:40 10.95380 122.41111 10479 ft 262 kts 346°
2026-04-25 08:40 10.97152 122.40601 11226 ft 266 kts 345°
2026-04-25 08:41 10.98932 122.40088 11944 ft 270 kts 345°
2026-04-25 08:41 11.00754 122.39562 12645 ft 275 kts 345°
2026-04-25 08:41 11.02604 122.39030 13339 ft 278 kts 345°
2026-04-25 08:41 11.04482 122.38487 14045 ft 281 kts 345°
2026-04-25 08:42 11.06371 122.37942 14764 ft 283 kts 345°
2026-04-25 08:42 11.08264 122.37395 15467 ft 285 kts 345°
2026-04-25 08:42 11.10184 122.36842 16160 ft 287 kts 345°
2026-04-25 08:42 11.12110 122.36290 16831 ft 289 kts 345°
2026-04-25 08:43 11.14050 122.35734 17490 ft 291 kts 345°
2026-04-25 08:43 11.15986 122.35144 18052 ft 297 kts 342°
2026-04-25 08:43 11.17991 122.34367 18354 ft 314 kts 338°
2026-04-25 08:43 11.20056 122.33485 18630 ft 330 kts 338°
2026-04-25 08:44 11.22243 122.32539 18899 ft 346 kts 338°
2026-04-25 08:44 11.24491 122.31564 19154 ft 361 kts 337°
2026-04-25 08:44 11.26871 122.30534 19403 ft 376 kts 337°
2026-04-25 08:44 11.29293 122.29484 19773 ft 385 kts 337°
2026-04-25 08:45 11.31799 122.28399 20314 ft 389 kts 337°
2026-04-25 08:45 11.34288 122.27321 20866 ft 393 kts 337°
2026-04-25 08:45 11.36801 122.26232 21399 ft 397 kts 337°
2026-04-25 08:45 11.39360 122.25123 21928 ft 401 kts 337°
2026-04-25 08:46 11.41942 122.24004 22465 ft 404 kts 336°
2026-04-25 08:46 11.44562 122.22868 23014 ft 407 kts 336°
2026-04-25 08:46 11.47177 122.21733 23566 ft 410 kts 336°
2026-04-25 08:46 11.49793 122.20599 24117 ft 413 kts 336°
2026-04-25 08:47 11.52441 122.19450 24675 ft 415 kts 336°
2026-04-25 08:47 11.55111 122.18291 25212 ft 417 kts 336°
2026-04-25 08:47 11.57804 122.17121 25731 ft 420 kts 336°
2026-04-25 08:47 11.60484 122.15957 26235 ft 422 kts 336°
2026-04-25 08:48 11.63226 122.14766 26741 ft 425 kts 336°
2026-04-25 08:48 11.65930 122.13593 27227 ft 427 kts 336°
2026-04-25 08:48 11.68679 122.12397 27693 ft 429 kts 336°
2026-04-25 08:48 11.71448 122.11195 28145 ft 432 kts 336°
2026-04-25 08:49 11.74206 122.09995 28577 ft 434 kts 336°
2026-04-25 08:49 11.76992 122.08783 29000 ft 436 kts 336°
2026-04-25 08:49 11.79830 122.07547 29364 ft 440 kts 336°
2026-04-25 08:49 11.82653 122.06319 29727 ft 443 kts 336°
2026-04-25 08:50 11.85473 122.05093 30178 ft 443 kts 336°
2026-04-25 08:50 11.88329 122.03850 30625 ft 444 kts 336°
2026-04-25 08:50 11.91147 122.02623 31045 ft 445 kts 335°
2026-04-25 08:50 11.94017 122.01373 31453 ft 446 kts 335°
2026-04-25 08:51 11.96861 122.00133 31851 ft 447 kts 335°
2026-04-25 08:51 11.99750 121.98874 32228 ft 448 kts 335°
2026-04-25 08:51 12.02605 121.97629 32569 ft 450 kts 335°
2026-04-25 08:51 12.05526 121.96355 32913 ft 453 kts 335°
2026-04-25 08:52 12.08414 121.95096 33305 ft 455 kts 335°
2026-04-25 08:52 12.11328 121.93825 33723 ft 456 kts 335°
2026-04-25 08:52 12.14261 121.92552 33829 ft 457 kts 335°
2026-04-25 08:53 12.20126 121.90000 33843 ft 457 kts 335°
2026-04-25 08:53 12.26002 121.87432 33846 ft 457 kts 335°
2026-04-25 08:54 12.31850 121.84869 33848 ft 457 kts 335°
2026-04-25 08:54 12.37713 121.82307 33848 ft 457 kts 335°
2026-04-25 08:55 12.43544 121.79774 33849 ft 456 kts 335°
2026-04-25 08:55 12.49414 121.77213 33847 ft 457 kts 335°
2026-04-25 08:56 12.53154 121.75577 33846 ft 456 kts 335°
2026-04-25 08:56 12.58343 121.73304 33848 ft 456 kts 335°
2026-04-25 08:57 12.64190 121.70740 33850 ft 456 kts 335°
2026-04-25 08:57 12.70049 121.68170 33860 ft 456 kts 335°
2026-04-25 08:58 12.75879 121.65612 33865 ft 456 kts 334°
2026-04-25 08:58 12.81724 121.63045 33870 ft 456 kts 334°
2026-04-25 08:59 12.87534 121.60492 33877 ft 455 kts 334°
2026-04-25 08:59 12.93374 121.57924 33878 ft 455 kts 334°
2026-04-25 09:00 12.99224 121.55350 33882 ft 455 kts 334°
2026-04-25 09:00 13.05038 121.52791 33873 ft 455 kts 334°
2026-04-25 09:01 13.10853 121.50230 33865 ft 454 kts 334°
2026-04-25 09:01 13.16680 121.47675 33873 ft 454 kts 334°
2026-04-25 09:02 13.22495 121.45118 33883 ft 454 kts 334°
2026-04-25 09:02 13.28279 121.42567 33890 ft 454 kts 334°
2026-04-25 09:03 13.34105 121.39992 33083 ft 458 kts 334°
2026-04-25 09:03 13.37038 121.38693 32355 ft 457 kts 334°
2026-04-25 09:03 13.39960 121.37397 31689 ft 456 kts 334°
2026-04-25 09:03 13.42841 121.36118 31067 ft 453 kts 334°
2026-04-25 09:04 13.45752 121.34829 30445 ft 449 kts 333°
2026-04-25 09:04 13.48585 121.33564 29840 ft 445 kts 333°
2026-04-25 09:04 13.51334 121.32135 29216 ft 439 kts 327°
2026-04-25 09:04 13.53884 121.30454 28767 ft 430 kts 321°
2026-04-25 09:05 13.56195 121.28571 28393 ft 424 kts 315°
2026-04-25 09:05 13.58308 121.26463 27958 ft 419 kts 310°
2026-04-25 09:05 13.60243 121.24251 27482 ft 415 kts 309°
2026-04-25 09:05 13.62123 121.22042 27002 ft 411 kts 308°
2026-04-25 09:06 13.64004 121.19825 26509 ft 407 kts 308°
2026-04-25 09:06 13.65847 121.17655 26021 ft 404 kts 308°
2026-04-25 09:06 13.67681 121.15500 25522 ft 401 kts 309°
2026-04-25 09:06 13.69513 121.13350 25029 ft 399 kts 309°
2026-04-25 09:07 13.71329 121.11220 24534 ft 396 kts 309°
2026-04-25 09:07 13.73156 121.09078 24033 ft 394 kts 309°
2026-04-25 09:07 13.74960 121.06965 23528 ft 392 kts 309°
2026-04-25 09:07 13.76756 121.04861 23024 ft 390 kts 309°
2026-04-25 09:08 13.78527 121.02786 22526 ft 388 kts 309°
2026-04-25 09:08 13.80315 121.00717 22023 ft 388 kts 312°
2026-04-25 09:08 13.82468 120.99013 21521 ft 390 kts 329°
2026-04-25 09:08 13.84997 120.98040 21047 ft 391 kts 346°
2026-04-25 09:09 13.87706 120.97675 20588 ft 390 kts 352°
2026-04-25 09:09 13.90404 120.97420 20130 ft 388 kts 353°
2026-04-25 09:09 13.93086 120.97166 19666 ft 385 kts 353°
2026-04-25 09:09 13.95752 120.96897 19214 ft 382 kts 353°
2026-04-25 09:10 13.98378 120.96625 18762 ft 380 kts 353°
2026-04-25 09:10 14.01025 120.96349 18301 ft 377 kts 353°
2026-04-25 09:10 14.03629 120.96075 17850 ft 373 kts 353°
2026-04-25 09:10 14.06160 120.95808 17711 ft 365 kts 353°
2026-04-25 09:11 14.11172 120.95278 17487 ft 352 kts 353°
2026-04-25 09:11 14.13565 120.95027 17403 ft 338 kts 353°
2026-04-25 09:11 14.15847 120.94771 17286 ft 325 kts 349°
2026-04-25 09:12 14.18014 120.94148 17010 ft 316 kts 336°
2026-04-25 09:12 14.19931 120.93147 16758 ft 309 kts 329°
2026-04-25 09:12 14.21787 120.92036 16478 ft 303 kts 328°
2026-04-25 09:12 14.23587 120.90944 16326 ft 293 kts 328°
2026-04-25 09:13 14.25253 120.89817 16105 ft 284 kts 314°
2026-04-25 09:13 14.26242 120.88112 15870 ft 274 kts 282°
2026-04-25 09:13 14.26241 120.86176 15481 ft 274 kts 254°
2026-04-25 09:13 14.25425 120.84439 15160 ft 272 kts 239°
2026-04-25 09:14 14.24437 120.82774 14848 ft 270 kts 240°
2026-04-25 09:14 14.23480 120.81116 14556 ft 268 kts 240°
2026-04-25 09:14 14.22547 120.79463 14256 ft 266 kts 241°
2026-04-25 09:14 14.21632 120.77823 14004 ft 262 kts 241°
2026-04-25 09:15 14.20740 120.76221 13751 ft 259 kts 241°
2026-04-25 09:15 14.19844 120.74628 13482 ft 256 kts 241°
2026-04-25 09:15 14.18943 120.73036 13208 ft 255 kts 241°
2026-04-25 09:15 14.18054 120.71467 12946 ft 253 kts 241°
2026-04-25 09:16 14.17175 120.69916 12675 ft 252 kts 241°
2026-04-25 09:16 14.16291 120.68356 12402 ft 251 kts 241°
2026-04-25 09:16 14.15410 120.66800 12125 ft 250 kts 241°
2026-04-25 09:16 14.14535 120.65256 11863 ft 249 kts 241°
2026-04-25 09:17 14.12794 120.62183 11319 ft 247 kts 241°
2026-04-25 09:17 14.11929 120.60654 11059 ft 246 kts 241°
2026-04-25 09:17 14.11213 120.59074 10769 ft 245 kts 261°
2026-04-25 09:18 14.11366 120.57349 10475 ft 242 kts 294°
2026-04-25 09:18 14.12347 120.55991 10193 ft 240 kts 324°
2026-04-25 09:18 14.13779 120.55120 9947 ft 238 kts 332°
2026-04-25 09:18 14.15246 120.54291 9687 ft 238 kts 331°
2026-04-25 09:19 14.16692 120.53457 9441 ft 237 kts 330°
2026-04-25 09:19 14.18119 120.52621 9194 ft 236 kts 330°
2026-04-25 09:19 14.19548 120.51779 8945 ft 235 kts 333°
2026-04-25 09:19 14.21093 120.51300 8645 ft 234 kts
2026-04-25 09:20 14.22641 120.51784 8386 ft 231 kts 36°
2026-04-25 09:20 14.23706 120.52998 8141 ft 229 kts 60°
2026-04-25 09:20 14.24478 120.54421 7913 ft 228 kts 60°
2026-04-25 09:20 14.25264 120.55834 7681 ft 227 kts 60°
2026-04-25 09:21 14.26055 120.57246 7439 ft 226 kts 60°
2026-04-25 09:21 14.26839 120.58646 7206 ft 225 kts 60°
2026-04-25 09:21 14.27613 120.60031 6970 ft 223 kts 61°
2026-04-25 09:21 14.28389 120.61421 6733 ft 222 kts 61°
2026-04-25 09:22 14.29146 120.62781 6498 ft 221 kts 61°
2026-04-25 09:22 14.29915 120.64165 6255 ft 220 kts 61°
2026-04-25 09:22 14.30677 120.65536 6014 ft 219 kts 62°
2026-04-25 09:22 14.31428 120.66890 5783 ft 217 kts 62°
2026-04-25 09:23 14.32178 120.68243 5548 ft 216 kts 62°
2026-04-25 09:23 14.32921 120.69585 5306 ft 214 kts 62°
2026-04-25 09:23 14.33655 120.70909 5067 ft 211 kts 62°
2026-04-25 09:23 14.34373 120.72205 4833 ft 208 kts 62°
2026-04-25 09:24 14.35090 120.73500 4602 ft 205 kts 62°
2026-04-25 09:24 14.35791 120.74764 4371 ft 202 kts 62°
2026-04-25 09:24 14.36482 120.76011 4146 ft 199 kts 62°
2026-04-25 09:24 14.37164 120.77241 3932 ft 196 kts 62°
2026-04-25 09:25 14.37837 120.78455 3713 ft 193 kts 62°
2026-04-25 09:25 14.38495 120.79642 3504 ft 191 kts 62°
2026-04-25 09:25 14.39153 120.80827 3294 ft 190 kts 62°
2026-04-25 09:25 14.39815 120.82023 3087 ft 189 kts 62°
2026-04-25 09:26 14.40460 120.83185 3007 ft 188 kts 62°
2026-04-25 09:26 14.41122 120.84377 3004 ft 189 kts 62°
2026-04-25 09:26 14.41765 120.85535 3079 ft 181 kts 61°
2026-04-25 09:26 14.42371 120.86626 2961 ft 173 kts 62°
2026-04-25 09:27 14.42972 120.87708 2718 ft 169 kts 62°
2026-04-25 09:27 14.43543 120.88737 2489 ft 165 kts 63°
2026-04-25 09:27 14.44106 120.89751 2294 ft 156 kts 63°
2026-04-25 09:27 14.44625 120.90682 2060 ft 144 kts 64°
2026-04-25 09:28 14.45113 120.91564 1889 ft 140 kts 64°
2026-04-25 09:28 14.45592 120.92429 1710 ft 139 kts 64°
2026-04-25 09:28 14.46078 120.93305 1524 ft 138 kts 63°
2026-04-25 09:28 14.46552 120.94158 1345 ft 138 kts 63°
2026-04-25 09:29 14.47030 120.95023 1159 ft 139 kts 62°
2026-04-25 09:29 14.47518 120.95895 955 ft 139 kts 65°
2026-04-25 09:29 14.47996 120.96757 779 ft 138 kts 62°
2026-04-25 09:29 14.48474 120.97616 604 ft 140 kts 65°
2026-04-25 09:30 14.48961 120.98492 368 ft 141 kts 66°
2026-04-25 09:30 14.49439 120.99380 196 ft 140 kts 63°
2026-04-25 09:30 14.49915 121.00240 61 ft 137 kts 62°
2026-04-25 09:30 14.50367 121.01061 38 ft 116 kts 63°
2026-04-25 09:31 14.50681 121.01622 49 ft 59 kts 52°
2026-04-25 09:31 14.50803 121.01747 51 ft 0 kts 38°
2026-04-25 09:31 14.50806 121.01750 51 ft 0 kts 38°
2026-04-25 09:31 14.50815 121.01756 51 ft 2 kts 38°
2026-04-25 09:32 14.50827 121.01766 52 ft 2 kts 38°
2026-04-25 09:32 14.50840 121.01777 52 ft 2 kts 37°
2026-04-25 09:32 14.50856 121.01787 52 ft 2 kts 18°
2026-04-25 09:32 14.50878 121.01786 52 ft 3 kts 343°
2026-04-25 09:33 14.50903 121.01778 53 ft 4 kts 353°
2026-04-25 09:33 14.50933 121.01794 52 ft 6 kts 55°
2026-04-25 09:33 14.50947 121.01819 52 ft 4 kts 59°
2026-04-25 09:33 14.50966 121.01852 52 ft 6 kts 60°
2026-04-25 09:34 14.50982 121.01882 52 ft 3 kts 60°
2026-04-25 09:34 14.50998 121.01910 53 ft 6 kts 60°
2026-04-25 09:34 14.51026 121.01962 54 ft 9 kts 60°
2026-04-25 09:34 14.51071 121.01984 56 ft 8 kts 329°
2026-04-25 09:35 14.51117 121.01939 56 ft 9 kts 315°
2026-04-25 09:35 14.51168 121.01888 56 ft 10 kts 316°
2026-04-25 09:35 14.51219 121.01835 56 ft 10 kts 315°
2026-04-25 09:35 14.51268 121.01784 57 ft 9 kts 316°
2026-04-25 09:36 14.51312 121.01738 57 ft 8 kts 314°
2026-04-25 09:36 14.51353 121.01696 58 ft 8 kts 315°
2026-04-25 09:36 14.51395 121.01653 57 ft 8 kts 315°
2026-04-25 09:36 14.51437 121.01611 57 ft 1 kts 316°
2026-04-25 09:37 14.51445 121.01603 56 ft 2 kts 315°
2026-04-25 09:37 14.51469 121.01578 56 ft 6 kts 315°
2026-04-25 09:37 14.51502 121.01550 56 ft 4 kts 355°
2026-04-25 09:37 14.51528 121.01570 56 ft 4 kts 45°
2026-04-25 09:38 14.51547 121.01590 56 ft 3 kts 45°
2026-04-25 09:38 14.51552 121.01595 56 ft 2 kts 45°
2026-04-25 09:38 14.51570 121.01614 57 ft 0 kts 45°
2026-04-25 09:39 14.51575 121.01618 57 ft 1 kts 45°
2026-04-25 09:39 14.51577 121.01620 57 ft 0 kts 45°